Decatur, AL

9:59 PM CDT on July 26, 2017 (GMT -0500)
Pryor Regional

Weather History for KDCU - February, 2013

Change the Weather History Date:

Tuesday, February 19, 2013

  Actual Average Record
Temperature  
Mean Temperature 41 °F -  
Max Temperature 50 °F 56 °F 74 °F (1984)
Min Temperature 30 °F 33 °F 1 °F (1958)
Degree Days  
Heating Degree Days 24    
Moisture  
Dew Point 35 °F    
Average Humidity 73    
Maximum Humidity 100    
Minimum Humidity 30    
Precipitation  
Precipitation 0.12 in - - ()
Sea Level Pressure  
Sea Level Pressure 30.09 in    
Wind  
Wind Speed 10 mph (West)    
Max Wind Speed 17 mph    
Max Gust Speed 26 mph    
Visibility 10 miles    
Events Rain    
Averages and records for this station are not official NWS values.
T = Trace of Precipitation, MM = Missing Value Source: NWS Daily Summary

Daily Weather History Graph

Daily Weather History Graph

Search for Another Location

Airport or City:

Trip Planner

Search our weather history database for the weather conditions in past years. The results will help you decide how hot, cold, wet, or windy it might be!

Date:

Astronomy

Feb. 19, 2013 Rise Set
Actual Time 6:28 AM CST 5:35 PM CST
Civil Twilight 6:03 AM CST 6:00 PM CST
Nautical Twilight 5:33 AM CST 6:30 PM CST
Astronomical Twilight 5:04 AM CST 6:59 PM CST
Moon 12:13 PM CST (2/19) 1:52 AM CST (2/19)
Length of Visible Light 11h 57m
Length of Day
11h 06m
Waxing Gibbous, 67% of the Moon is Illuminated
Feb 19
Waxing Gibbous
Feb 25
Full
Mar 4
Last Quarter
Mar 11
New
Mar 19
First Quarter

Hourly Weather History & Observations

Time (CST) Temp. Windchill Dew Point Humidity Pressure Visibility Wind Dir Wind Speed Gust Speed Precip Events Conditions
12:53 AM 46.9 °F - 45.0 °F 93% 30.00 in 10.0 mi South 8.1 mph - 0.09 in   Overcast
1:17 AM 46.4 °F 42.4 °F 44.6 °F 93% 29.98 in 10.0 mi SSE 8.1 mph - 0.01 in Rain Light Rain
1:49 AM 46.4 °F 40.7 °F 44.6 °F 93% 29.96 in 8.0 mi SSE 12.7 mph - 0.02 in Rain Light Rain
1:53 AM 46.9 °F - 45.0 °F 93% 29.95 in 9.0 mi SSE 12.7 mph - 0.02 in Rain Light Rain
2:53 AM 48.0 °F - 45.0 °F 89% 29.94 in 10.0 mi South 11.5 mph - 0.00 in   Overcast
3:16 AM 48.2 °F - 46.4 °F 93% 29.93 in 10.0 mi SSW 11.5 mph - N/A   Overcast
3:53 AM 48.9 °F - 46.0 °F 90% 29.94 in 10.0 mi SW 10.4 mph - N/A   Overcast
4:49 AM 48.2 °F - 48.2 °F 100% 29.97 in 6.0 mi WSW 6.9 mph - 0.00 in Rain Light Rain
4:53 AM 48.9 °F - 48.0 °F 97% 29.97 in 7.0 mi WSW 6.9 mph - 0.00 in Rain Light Rain
5:41 AM 46.4 °F 40.1 °F 44.6 °F 93% 30.01 in 10.0 mi WNW 15.0 mph 25.3 mph 0.01 in   Overcast
5:53 AM 46.0 °F 39.9 °F 43.0 °F 89% 30.02 in 10.0 mi WNW 13.8 mph - 0.01 in   Overcast
6:06 AM 46.4 °F 41.5 °F 42.8 °F 87% 30.03 in 10.0 mi WNW 10.4 mph - N/A   Overcast
6:40 AM 44.6 °F 38.4 °F 42.8 °F 93% 30.05 in 10.0 mi NW 12.7 mph - N/A   Overcast
6:53 AM 44.1 °F 37.7 °F 39.9 °F 85% 30.06 in 10.0 mi NW 12.7 mph - N/A   Overcast
7:04 AM 44.6 °F 38.4 °F 39.2 °F 81% 30.07 in 10.0 mi NNW 12.7 mph - N/A   Overcast
7:53 AM 43.0 °F 36.0 °F 36.0 °F 76% 30.11 in 10.0 mi NNW 13.8 mph - N/A   Overcast
8:17 AM 44.6 °F 38.4 °F 35.6 °F 71% 30.11 in 10.0 mi NW 12.7 mph - N/A   Scattered Clouds
8:53 AM 45.0 °F 39.7 °F 36.0 °F 71% 30.12 in 10.0 mi WNW 10.4 mph - N/A   Partly Cloudy
9:53 AM 46.9 °F - 37.0 °F 68% 30.14 in 10.0 mi West 13.8 mph - N/A   Partly Cloudy
10:53 AM 48.0 °F - 34.0 °F 58% 30.16 in 10.0 mi West 15.0 mph - N/A   Clear
12:53 PM 50.0 °F - 27.0 °F 41% 30.14 in 10.0 mi West 16.1 mph 24.2 mph N/A   Clear
1:53 PM 50.0 °F - 24.1 °F 36% 30.14 in 10.0 mi West 16.1 mph 26.5 mph N/A   Clear
3:53 PM 50.0 °F - 21.0 °F 32% 30.16 in 10.0 mi WNW 13.8 mph - N/A   Clear
4:53 PM 48.0 °F - 18.0 °F 30% 30.17 in 10.0 mi West 17.3 mph 25.3 mph N/A   Clear
6:53 PM 42.1 °F 38.4 °F 19.9 °F 41% 30.20 in 10.0 mi NW 5.8 mph - N/A   Clear
7:53 PM 39.9 °F 33.9 °F 19.9 °F 45% 30.21 in 10.0 mi NW 9.2 mph - N/A   Clear
8:53 PM 37.9 °F 32.7 °F 21.0 °F 51% 30.25 in 10.0 mi NW 6.9 mph - N/A   Clear
9:53 PM 34.0 °F 28.8 °F 21.9 °F 61% 30.26 in 10.0 mi NNW 5.8 mph - N/A   Clear
10:53 PM 32.0 °F - 21.9 °F 66% 30.25 in 10.0 mi Calm Calm - N/A   Clear
11:53 PM 30.0 °F - 23.0 °F 75% 30.25 in 10.0 mi Calm Calm - N/A   Clear